Time,TemperatureF,DewpointF,PressureIn,WindDirection,WindDirectionDegrees,WindSpeedMPH,WindSpeedGustMPH,Humidity,HourlyPrecipIn,Conditions,Clouds,dailyrainin,SoftwareType,DateUTC
2013-03-25 00:03:00,48.6,46.4,30.01,West,262,6.0,10.0,92,0.00,,,0.00,meteohub,2013-03-25 07:03:00,
2013-03-25 00:08:00,48.6,46.4,30.01,WSW,256,3.0,13.0,92,0.00,,,0.00,meteohub,2013-03-25 07:08:00,
2013-03-25 00:13:00,48.6,46.4,30.01,West,274,5.0,13.0,92,0.00,,,0.00,meteohub,2013-03-25 07:13:00,
2013-03-25 00:18:00,48.6,46.4,30.01,WSW,251,4.0,13.0,92,0.00,,,0.00,meteohub,2013-03-25 07:18:00,
2013-03-25 00:23:00,48.6,46.4,30.01,WSW,250,5.0,10.0,92,0.00,,,0.00,meteohub,2013-03-25 07:23:00,
2013-03-25 00:28:00,48.6,46.4,30.01,West,277,6.0,11.0,92,0.00,,,0.00,meteohub,2013-03-25 07:28:00,
2013-03-25 00:33:00,48.6,46.4,30.01,West,268,7.0,11.0,92,0.00,,,0.00,meteohub,2013-03-25 07:33:00,
2013-03-25 00:38:00,48.6,46.4,30.01,West,261,7.0,11.0,92,0.00,,,0.00,meteohub,2013-03-25 07:38:00,
2013-03-25 00:44:00,48.6,46.0,30.01,WSW,252,5.0,10.0,91,0.00,,,0.00,meteohub,2013-03-25 07:44:00,
2013-03-25 00:49:00,48.6,46.0,30.01,SW,232,2.0,10.0,91,0.00,,,0.00,meteohub,2013-03-25 07:49:00,
2013-03-25 00:54:00,48.6,46.0,30.01,West,279,4.0,11.0,91,0.00,,,0.00,meteohub,2013-03-25 07:54:00,
2013-03-25 00:59:00,48.6,46.0,30.01,WSW,241,3.0,11.0,91,0.00,,,0.00,meteohub,2013-03-25 07:59:00,
2013-03-25 01:04:00,48.6,46.0,30.01,West,266,6.0,11.0,91,0.00,,,0.00,meteohub,2013-03-25 08:04:00,
2013-03-25 01:09:00,48.4,45.9,30.01,WSW,255,3.0,11.0,91,0.00,,,0.00,meteohub,2013-03-25 08:09:00,
2013-03-25 01:14:00,48.4,45.9,30.01,WSW,254,5.0,11.0,91,0.00,,,0.00,meteohub,2013-03-25 08:14:00,
2013-03-25 01:20:00,48.4,45.9,30.01,NW,305,1.0,11.0,91,0.00,,,0.00,meteohub,2013-03-25 08:20:00,
2013-03-25 01:25:00,48.4,45.9,30.01,SW,227,6.0,11.0,91,0.00,,,0.00,meteohub,2013-03-25 08:25:00,
2013-03-25 01:30:00,48.4,45.9,30.01,WSW,249,2.0,10.0,91,0.00,,,0.00,meteohub,2013-03-25 08:30:00,
2013-03-25 01:36:00,48.2,45.7,30.01,SW,229,8.0,11.0,91,0.00,,,0.00,meteohub,2013-03-25 08:36:00,
2013-03-25 01:41:00,48.2,45.7,30.01,SW,233,7.0,11.0,91,0.00,,,0.00,meteohub,2013-03-25 08:41:00,
2013-03-25 01:46:00,48.2,45.7,30.01,West,271,6.0,11.0,91,0.00,,,0.00,meteohub,2013-03-25 08:46:00,
2013-03-25 01:51:00,48.0,45.5,30.01,West,268,6.0,10.0,91,0.00,,,0.00,meteohub,2013-03-25 08:51:00,
2013-03-25 01:56:00,48.0,45.5,30.01,WSW,256,1.0,10.0,91,0.00,,,0.00,meteohub,2013-03-25 08:56:00,
2013-03-25 02:02:00,48.0,45.5,30.01,WSW,252,2.0,9.0,91,0.00,,,0.00,meteohub,2013-03-25 09:02:00,
2013-03-25 02:07:00,48.0,45.5,30.01,SW,231,5.0,12.0,91,0.00,,,0.00,meteohub,2013-03-25 09:07:00,
2013-03-25 02:12:00,48.0,45.5,30.00,WSW,248,3.0,12.0,91,0.00,,,0.00,meteohub,2013-03-25 09:12:00,
2013-03-25 02:17:00,48.0,45.5,30.00,WSW,239,4.0,9.0,91,0.00,,,0.00,meteohub,2013-03-25 09:17:00,
2013-03-25 02:22:00,48.0,45.5,30.00,WSW,257,6.0,9.0,91,0.00,,,0.00,meteohub,2013-03-25 09:22:00,
2013-03-25 02:27:00,48.0,45.5,30.00,WSW,251,3.0,9.0,91,0.00,,,0.00,meteohub,2013-03-25 09:27:00,
2013-03-25 02:32:00,47.8,45.3,30.00,WSW,243,5.0,9.0,91,0.00,,,0.00,meteohub,2013-03-25 09:32:00,
2013-03-25 02:37:00,47.8,45.3,30.00,WSW,243,5.0,9.0,91,0.00,,,0.00,meteohub,2013-03-25 09:37:00,
2013-03-25 02:43:00,47.8,45.3,30.00,WSW,239,5.0,9.0,91,0.00,,,0.00,meteohub,2013-03-25 09:43:00,
2013-03-25 02:48:00,47.8,45.3,30.01,WSW,251,4.0,9.0,91,0.00,,,0.00,meteohub,2013-03-25 09:48:00,
2013-03-25 02:53:00,47.8,45.3,30.00,WSW,250,3.0,9.0,91,0.00,,,0.00,meteohub,2013-03-25 09:53:00,
2013-03-25 02:58:00,47.8,45.3,30.00,WSW,239,7.0,10.0,91,0.00,,,0.00,meteohub,2013-03-25 09:58:00,
2013-03-25 03:03:00,47.8,45.3,30.00,West,261,5.0,10.0,91,0.00,,,0.00,meteohub,2013-03-25 10:03:00,
2013-03-25 03:08:00,47.8,45.3,30.00,WSW,246,7.0,10.0,91,0.00,,,0.00,meteohub,2013-03-25 10:08:00,
2013-03-25 03:14:00,47.8,45.3,30.00,WSW,257,2.0,10.0,91,0.00,,,0.00,meteohub,2013-03-25 10:14:00,
2013-03-25 03:19:00,48.0,45.5,30.00,WSW,250,2.0,12.0,91,0.00,,,0.00,meteohub,2013-03-25 10:19:00,
2013-03-25 03:24:00,48.0,45.5,30.00,West,260,9.0,12.0,91,0.00,,,0.00,meteohub,2013-03-25 10:24:00,
2013-03-25 03:29:00,47.8,45.0,30.00,West,262,7.0,11.0,90,0.00,,,0.00,meteohub,2013-03-25 10:29:00,
2013-03-25 03:34:00,48.0,45.5,30.00,SW,231,3.0,11.0,91,0.00,,,0.00,meteohub,2013-03-25 10:34:00,
2013-03-25 03:40:00,47.8,45.3,30.00,West,272,3.0,11.0,91,0.00,,,0.00,meteohub,2013-03-25 10:40:00,
2013-03-25 03:45:00,47.8,45.3,30.00,West,272,3.0,11.0,91,0.00,,,0.00,meteohub,2013-03-25 10:45:00,
2013-03-25 03:50:00,47.8,45.3,29.99,West,272,10.0,11.0,91,0.00,,,0.00,meteohub,2013-03-25 10:50:00,
2013-03-25 03:55:00,47.8,45.3,29.99,WSW,247,7.0,13.0,91,0.00,,,0.00,meteohub,2013-03-25 10:55:00,
2013-03-25 04:00:00,47.8,45.3,29.99,West,266,3.0,13.0,91,0.00,,,0.00,meteohub,2013-03-25 11:00:00,
2013-03-25 04:06:00,47.8,45.3,29.99,West,266,2.0,11.0,91,0.00,,,0.00,meteohub,2013-03-25 11:06:00,
2013-03-25 04:11:00,47.8,45.3,29.99,WNW,283,3.0,11.0,91,0.00,,,0.00,meteohub,2013-03-25 11:11:00,
2013-03-25 04:16:00,47.7,45.1,29.99,West,279,8.0,10.0,91,0.00,,,0.00,meteohub,2013-03-25 11:16:00,
2013-03-25 04:21:00,47.7,45.1,29.99,West,276,6.0,11.0,91,0.00,,,0.00,meteohub,2013-03-25 11:21:00,
2013-03-25 04:27:00,47.7,45.1,29.99,West,262,8.0,13.0,91,0.00,,,0.00,meteohub,2013-03-25 11:27:00,
2013-03-25 04:32:00,47.7,45.1,29.99,WSW,245,0.0,13.0,91,0.00,,,0.00,meteohub,2013-03-25 11:32:00,
2013-03-25 04:37:00,47.5,45.0,29.99,WSW,254,5.0,13.0,91,0.00,,,0.00,meteohub,2013-03-25 11:37:00,
2013-03-25 04:42:00,47.5,45.0,29.99,WSW,247,4.0,11.0,91,0.00,,,0.00,meteohub,2013-03-25 11:42:00,
2013-03-25 04:47:00,47.5,45.0,29.99,WNW,287,3.0,12.0,91,0.00,,,0.00,meteohub,2013-03-25 11:47:00,
2013-03-25 04:52:00,47.5,45.0,29.99,West,261,5.0,12.0,91,0.00,,,0.00,meteohub,2013-03-25 11:52:00,
2013-03-25 04:57:00,47.5,45.3,29.99,WSW,245,2.0,9.0,92,0.00,,,0.00,meteohub,2013-03-25 11:57:00,
2013-03-25 05:02:00,47.5,45.0,29.99,WSW,254,4.0,9.0,91,0.00,,,0.00,meteohub,2013-03-25 12:02:00,
2013-03-25 05:07:00,47.5,45.3,29.99,West,260,1.0,9.0,92,0.00,,,0.00,meteohub,2013-03-25 12:07:00,
2013-03-25 05:13:00,47.3,45.1,29.99,West,271,3.0,9.0,92,0.00,,,0.00,meteohub,2013-03-25 12:13:00,
2013-03-25 05:18:00,47.3,45.1,29.99,WSW,250,0.0,8.0,92,0.00,,,0.00,meteohub,2013-03-25 12:18:00,
2013-03-25 05:23:00,47.5,45.3,29.99,West,260,5.0,9.0,92,0.00,,,0.00,meteohub,2013-03-25 12:23:00,
2013-03-25 05:28:00,47.5,45.3,29.99,SW,231,2.0,9.0,92,0.00,,,0.00,meteohub,2013-03-25 12:28:00,
2013-03-25 05:33:00,47.5,45.3,29.99,WSW,254,3.0,10.0,92,0.00,,,0.00,meteohub,2013-03-25 12:33:00,
2013-03-25 05:38:00,47.5,45.3,30.00,SW,229,6.0,10.0,92,0.00,,,0.00,meteohub,2013-03-25 12:38:00,
2013-03-25 05:44:00,47.3,45.1,30.00,WSW,252,4.0,10.0,92,0.00,,,0.00,meteohub,2013-03-25 12:44:00,
2013-03-25 05:49:00,47.3,45.1,30.00,West,259,5.0,10.0,92,0.00,,,0.00,meteohub,2013-03-25 12:49:00,
2013-03-25 05:54:00,47.5,45.3,29.99,WSW,246,3.0,10.0,92,0.00,,,0.00,meteohub,2013-03-25 12:54:00,
2013-03-25 06:00:00,47.3,45.1,29.99,West,269,3.0,10.0,92,0.00,,,0.00,meteohub,2013-03-25 13:00:00,
2013-03-25 06:05:00,47.3,45.1,29.99,WSW,249,0.0,10.0,92,0.00,,,0.00,meteohub,2013-03-25 13:05:00,
2013-03-25 06:10:00,47.3,45.1,29.99,WSW,256,6.0,11.0,92,0.00,,,0.00,meteohub,2013-03-25 13:10:00,
2013-03-25 06:15:00,47.3,45.1,29.99,WSW,257,5.0,11.0,92,0.00,,,0.00,meteohub,2013-03-25 13:15:00,
2013-03-25 06:20:00,47.1,45.0,30.00,West,262,3.0,9.0,92,0.00,,,0.00,meteohub,2013-03-25 13:20:00,
2013-03-25 06:25:00,47.1,45.0,30.00,WSW,254,2.0,10.0,92,0.00,,,0.00,meteohub,2013-03-25 13:25:00,
2013-03-25 06:30:00,47.1,45.0,30.00,West,279,3.0,10.0,92,0.00,,,0.00,meteohub,2013-03-25 13:30:00,
2013-03-25 06:36:00,47.1,45.0,30.00,West,281,0.0,9.0,92,0.00,,,0.00,meteohub,2013-03-25 13:36:00,
2013-03-25 06:41:00,47.1,45.0,29.99,WSW,253,3.0,9.0,92,0.00,,,0.00,meteohub,2013-03-25 13:41:00,
2013-03-25 06:46:00,47.1,45.0,29.99,West,266,1.0,9.0,92,0.00,,,0.00,meteohub,2013-03-25 13:46:00,
2013-03-25 06:52:00,47.1,45.0,30.00,WSW,241,4.0,6.0,92,0.00,,,0.00,meteohub,2013-03-25 13:52:00,
2013-03-25 06:57:00,46.9,44.8,30.00,WSW,254,4.0,9.0,92,0.00,,,0.00,meteohub,2013-03-25 13:57:00,
2013-03-25 07:02:00,46.9,44.8,30.00,West,265,6.0,9.0,92,0.00,,,0.00,meteohub,2013-03-25 14:02:00,
2013-03-25 07:07:00,46.9,44.8,30.00,WSW,247,2.0,9.0,92,0.00,,,0.00,meteohub,2013-03-25 14:07:00,
2013-03-25 07:12:00,46.9,44.8,30.00,WSW,254,3.0,10.0,92,0.00,,,0.00,meteohub,2013-03-25 14:12:00,
2013-03-25 07:17:00,46.9,44.8,30.00,West,266,3.0,10.0,92,0.00,,,0.00,meteohub,2013-03-25 14:17:00,
2013-03-25 07:22:00,46.9,44.8,30.00,SW,219,4.0,9.0,92,0.00,,,0.00,meteohub,2013-03-25 14:22:00,
2013-03-25 07:27:00,46.9,44.8,30.01,WSW,245,7.0,9.0,92,0.00,,,0.00,meteohub,2013-03-25 14:27:00,
2013-03-25 07:32:00,46.9,44.8,30.01,WSW,258,3.0,10.0,92,0.00,,,0.00,meteohub,2013-03-25 14:32:00,
2013-03-25 07:37:00,47.1,45.0,30.00,WSW,258,5.0,10.0,92,0.00,,,0.00,meteohub,2013-03-25 14:37:00,
2013-03-25 07:42:00,47.1,45.0,30.01,West,262,3.0,10.0,92,0.00,,,0.00,meteohub,2013-03-25 14:42:00,
2013-03-25 07:47:00,47.1,45.0,30.01,WNW,282,3.0,10.0,92,0.00,,,0.00,meteohub,2013-03-25 14:47:00,
2013-03-25 07:52:00,47.3,45.1,30.01,West,272,3.0,11.0,92,0.00,,,0.00,meteohub,2013-03-25 14:52:00,
2013-03-25 07:57:00,47.5,45.0,30.01,WSW,243,3.0,11.0,91,0.00,,,0.00,meteohub,2013-03-25 14:57:00,
2013-03-25 08:03:00,47.5,45.3,30.01,SW,228,6.0,11.0,92,0.00,,,0.00,meteohub,2013-03-25 15:03:00,
2013-03-25 08:08:00,47.7,45.1,30.01,WSW,258,2.0,10.0,91,0.00,,,0.00,meteohub,2013-03-25 15:08:00,
2013-03-25 08:13:00,47.7,45.1,30.01,West,262,3.0,8.0,91,0.00,,,0.00,meteohub,2013-03-25 15:13:00,
2013-03-25 08:18:00,47.7,45.1,30.01,WSW,243,3.0,10.0,91,0.00,,,0.00,meteohub,2013-03-25 15:18:00,
2013-03-25 08:24:00,47.7,45.1,30.01,West,266,7.0,10.0,91,0.00,,,0.00,meteohub,2013-03-25 15:24:00,
2013-03-25 08:29:00,47.7,45.1,30.01,West,261,7.0,10.0,91,0.00,,,0.00,meteohub,2013-03-25 15:29:00,
2013-03-25 08:34:00,47.7,45.1,30.01,West,263,6.0,10.0,91,0.00,,,0.00,meteohub,2013-03-25 15:34:00,
2013-03-25 08:40:00,47.7,45.0,30.02,West,269,9.0,11.0,90,0.00,,,0.00,meteohub,2013-03-25 15:40:00,
2013-03-25 08:45:00,47.7,45.0,30.02,WSW,256,5.0,11.0,90,0.00,,,0.00,meteohub,2013-03-25 15:45:00,
2013-03-25 08:50:00,47.7,45.0,30.02,SW,233,8.0,9.0,90,0.00,,,0.00,meteohub,2013-03-25 15:50:00,
2013-03-25 08:56:00,47.8,45.0,30.02,WSW,249,2.0,10.0,90,0.00,,,0.00,meteohub,2013-03-25 15:56:00,
2013-03-25 09:01:00,47.8,44.8,30.02,SW,227,4.0,10.0,89,0.00,,,0.00,meteohub,2013-03-25 16:01:00,
2013-03-25 09:06:00,47.8,44.8,30.02,WSW,239,4.0,10.0,89,0.00,,,0.00,meteohub,2013-03-25 16:06:00,
2013-03-25 09:12:00,47.8,44.8,30.02,West,260,9.0,11.0,89,0.00,,,0.00,meteohub,2013-03-25 16:12:00,
2013-03-25 09:17:00,47.8,44.8,30.02,SW,223,3.0,11.0,89,0.00,,,0.00,meteohub,2013-03-25 16:17:00,
2013-03-25 09:22:00,47.8,44.8,30.02,SSW,202,0.0,11.0,89,0.00,,,0.00,meteohub,2013-03-25 16:22:00,
2013-03-25 09:27:00,48.0,45.0,30.02,West,260,6.0,11.0,89,0.00,,,0.00,meteohub,2013-03-25 16:27:00,
2013-03-25 09:32:00,48.4,45.3,30.02,SW,235,0.0,9.0,89,0.00,,,0.00,meteohub,2013-03-25 16:32:00,
2013-03-25 09:37:00,48.7,45.3,30.02,WSW,244,7.0,8.0,88,0.00,,,0.00,meteohub,2013-03-25 16:37:00,
2013-03-25 09:43:00,48.6,44.8,30.02,SW,219,8.0,9.0,87,0.00,,,0.00,meteohub,2013-03-25 16:43:00,
2013-03-25 09:48:00,48.6,45.1,30.03,WSW,241,7.0,13.0,88,0.00,,,0.00,meteohub,2013-03-25 16:48:00,
2013-03-25 09:53:00,48.6,45.5,30.03,West,271,0.0,13.0,89,0.00,,,0.00,meteohub,2013-03-25 16:53:00,
2013-03-25 09:58:00,48.6,44.8,30.03,West,266,9.0,12.0,87,0.00,,,0.00,meteohub,2013-03-25 16:58:00,
2013-03-25 10:03:00,48.6,45.1,30.03,WSW,243,4.0,12.0,88,0.00,,,0.00,meteohub,2013-03-25 17:03:00,
2013-03-25 10:08:00,48.7,45.0,30.03,SW,227,7.0,13.0,87,0.00,,,0.00,meteohub,2013-03-25 17:08:00,
2013-03-25 10:14:00,48.7,45.0,30.03,South,181,5.0,13.0,87,0.00,,,0.00,meteohub,2013-03-25 17:14:00,
2013-03-25 10:19:00,48.6,44.8,30.04,WSW,252,8.0,13.0,87,0.00,,,0.00,meteohub,2013-03-25 17:19:00,
2013-03-25 10:24:00,48.4,44.8,30.04,WSW,250,4.0,14.0,87,0.00,,,0.00,meteohub,2013-03-25 17:24:00,
2013-03-25 10:29:00,48.6,44.8,30.04,WNW,283,9.0,14.0,87,0.00,,,0.00,meteohub,2013-03-25 17:29:00,
2013-03-25 10:34:00,48.4,45.0,30.04,WSW,244,7.0,13.0,88,0.00,,,0.00,meteohub,2013-03-25 17:34:00,
2013-03-25 10:39:00,48.6,45.1,30.04,WSW,253,8.0,14.0,88,0.00,,,0.00,meteohub,2013-03-25 17:39:00,
2013-03-25 10:44:00,48.4,44.8,30.04,WSW,250,10.0,14.0,87,0.00,,,0.00,meteohub,2013-03-25 17:44:00,
2013-03-25 10:49:00,48.4,45.0,30.04,WSW,252,7.0,14.0,88,0.00,,,0.00,meteohub,2013-03-25 17:49:00,
2013-03-25 10:55:00,48.6,44.8,30.04,WSW,242,5.0,14.0,87,0.00,,,0.00,meteohub,2013-03-25 17:55:00,
2013-03-25 11:00:00,48.7,45.3,30.04,West,281,8.0,14.0,88,0.00,,,0.00,meteohub,2013-03-25 18:00:00,
2013-03-25 11:05:00,48.7,45.0,30.04,WSW,256,6.0,13.0,87,0.00,,,0.00,meteohub,2013-03-25 18:05:00,
2013-03-25 11:10:00,48.7,45.0,30.04,WSW,252,8.0,14.0,87,0.00,,,0.00,meteohub,2013-03-25 18:10:00,
2013-03-25 11:15:00,49.1,45.3,30.04,West,269,7.0,14.0,87,0.00,,,0.00,meteohub,2013-03-25 18:15:00,
2013-03-25 11:21:00,49.1,45.1,30.04,WSW,247,4.0,14.0,86,0.00,,,0.00,meteohub,2013-03-25 18:21:00,
2013-03-25 11:26:00,49.5,45.1,30.04,SW,220,5.0,14.0,85,0.00,,,0.00,meteohub,2013-03-25 18:26:00,
2013-03-25 11:31:00,49.5,45.5,30.04,WSW,252,8.0,14.0,86,0.00,,,0.00,meteohub,2013-03-25 18:31:00,
2013-03-25 11:37:00,49.5,45.1,30.04,WSW,237,12.0,15.0,85,0.00,,,0.00,meteohub,2013-03-25 18:37:00,
2013-03-25 11:42:00,49.3,45.0,30.04,SW,219,3.0,15.0,85,0.00,,,0.00,meteohub,2013-03-25 18:42:00,
2013-03-25 11:47:00,49.5,45.1,30.04,WSW,253,9.0,15.0,85,0.00,,,0.00,meteohub,2013-03-25 18:47:00,
2013-03-25 11:52:00,49.6,45.0,30.04,WSW,256,3.0,14.0,84,0.00,,,0.00,meteohub,2013-03-25 18:52:00,
2013-03-25 11:57:00,49.6,45.3,30.04,West,277,7.0,14.0,85,0.00,,,0.00,meteohub,2013-03-25 18:57:00,
2013-03-25 12:02:00,49.6,45.0,30.04,West,259,6.0,14.0,84,0.00,,,0.00,meteohub,2013-03-25 19:02:00,
2013-03-25 12:07:00,50.0,45.3,30.04,WSW,237,7.0,14.0,84,0.00,,,0.00,meteohub,2013-03-25 19:07:00,
2013-03-25 12:12:00,50.5,45.9,30.04,WSW,258,1.0,14.0,84,0.00,,,0.00,meteohub,2013-03-25 19:12:00,
2013-03-25 12:17:00,50.9,45.3,30.04,SW,222,8.0,14.0,81,0.00,,,0.00,meteohub,2013-03-25 19:17:00,
2013-03-25 12:23:00,51.1,45.5,30.04,WSW,254,10.0,15.0,81,0.00,,,0.00,meteohub,2013-03-25 19:23:00,
2013-03-25 12:28:00,51.1,45.1,30.04,West,279,7.0,15.0,80,0.00,,,0.00,meteohub,2013-03-25 19:28:00,
2013-03-25 12:33:00,51.3,45.3,30.04,WSW,248,4.0,15.0,80,0.00,,,0.00,meteohub,2013-03-25 19:33:00,
2013-03-25 12:38:00,51.6,45.3,30.04,SW,231,13.0,15.0,79,0.00,,,0.00,meteohub,2013-03-25 19:38:00,
2013-03-25 12:44:00,51.6,45.7,30.03,SW,225,11.0,16.0,80,0.00,,,0.00,meteohub,2013-03-25 19:44:00,
2013-03-25 12:49:00,51.6,45.7,30.03,West,281,3.0,17.0,80,0.00,,,0.00,meteohub,2013-03-25 19:49:00,
2013-03-25 12:54:00,51.6,45.7,30.03,NNW,327,4.0,17.0,80,0.00,,,0.00,meteohub,2013-03-25 19:54:00,
2013-03-25 12:59:00,52.0,45.3,30.03,WSW,249,12.0,17.0,78,0.00,,,0.00,meteohub,2013-03-25 19:59:00,
2013-03-25 13:05:00,51.3,45.0,30.03,WSW,257,13.0,17.0,79,0.00,,,0.00,meteohub,2013-03-25 20:05:00,
2013-03-25 13:10:00,51.3,45.0,30.03,SW,231,10.0,16.0,79,0.00,,,0.00,meteohub,2013-03-25 20:10:00,
2013-03-25 13:15:00,51.6,45.7,30.03,West,260,5.0,18.0,80,0.00,,,0.00,meteohub,2013-03-25 20:15:00,
2013-03-25 13:20:00,52.2,45.9,30.03,SW,215,8.0,18.0,79,0.00,,,0.00,meteohub,2013-03-25 20:20:00,
2013-03-25 13:25:00,52.2,45.5,30.03,NW,314,3.0,14.0,78,0.00,,,0.00,meteohub,2013-03-25 20:25:00,
2013-03-25 13:30:00,52.7,45.7,30.03,WSW,244,4.0,14.0,77,0.00,,,0.00,meteohub,2013-03-25 20:30:00,
2013-03-25 13:36:00,52.3,45.3,30.02,WSW,252,10.0,14.0,77,0.00,,,0.00,meteohub,2013-03-25 20:36:00,
2013-03-25 13:41:00,52.3,46.0,30.02,West,274,1.0,18.0,79,0.00,,,0.00,meteohub,2013-03-25 20:41:00,
2013-03-25 13:47:00,52.3,45.7,30.02,WNW,293,4.0,18.0,78,0.00,,,0.00,meteohub,2013-03-25 20:47:00,
2013-03-25 13:52:00,52.3,45.7,30.02,West,281,9.0,15.0,78,0.00,,,0.00,meteohub,2013-03-25 20:52:00,
2013-03-25 13:57:00,52.3,46.0,30.02,WNW,283,12.0,15.0,79,0.00,,,0.00,meteohub,2013-03-25 20:57:00,
2013-03-25 14:02:00,52.0,45.0,30.02,NW,306,7.0,15.0,77,0.00,,,0.00,meteohub,2013-03-25 21:02:00,
2013-03-25 14:08:00,52.0,45.7,30.02,West,272,6.0,15.0,79,0.00,,,0.00,meteohub,2013-03-25 21:08:00,
2013-03-25 14:13:00,52.2,45.1,30.01,West,268,11.0,15.0,77,0.00,,,0.00,meteohub,2013-03-25 21:13:00,
2013-03-25 14:18:00,52.0,45.3,30.01,WSW,243,8.0,18.0,78,0.00,,,0.00,meteohub,2013-03-25 21:18:00,
2013-03-25 14:23:00,52.0,45.3,30.01,West,273,7.0,18.0,78,0.00,,,0.00,meteohub,2013-03-25 21:23:00,
2013-03-25 14:29:00,52.3,45.7,30.01,WSW,256,7.0,18.0,78,0.00,,,0.00,meteohub,2013-03-25 21:29:00,
2013-03-25 14:34:00,52.3,45.0,30.01,West,280,4.0,17.0,76,0.00,,,0.00,meteohub,2013-03-25 21:34:00,
2013-03-25 14:39:00,52.5,45.5,30.00,WNW,295,8.0,17.0,77,0.00,,,0.00,meteohub,2013-03-25 21:39:00,
2013-03-25 14:45:00,52.3,45.3,30.01,WSW,252,11.0,16.0,77,0.00,,,0.00,meteohub,2013-03-25 21:45:00,
2013-03-25 14:50:00,52.2,45.1,30.00,West,278,5.0,20.0,77,0.00,,,0.00,meteohub,2013-03-25 21:50:00,
2013-03-25 14:55:00,52.3,45.3,30.00,WSW,256,6.0,20.0,77,0.00,,,0.00,meteohub,2013-03-25 21:55:00,
2013-03-25 15:00:00,52.3,45.7,30.00,West,270,13.0,17.0,78,0.00,,,0.00,meteohub,2013-03-25 22:00:00,
2013-03-25 15:06:00,52.9,45.9,30.00,NNW,341,0.0,17.0,77,0.00,,,0.00,meteohub,2013-03-25 22:06:00,
2013-03-25 15:11:00,52.9,45.5,30.00,West,262,15.0,17.0,76,0.00,,,0.00,meteohub,2013-03-25 22:11:00,
2013-03-25 15:16:00,52.0,45.0,29.99,WSW,250,13.0,17.0,77,0.00,,,0.00,meteohub,2013-03-25 22:16:00,
2013-03-25 15:21:00,52.0,45.3,29.99,West,271,5.0,17.0,78,0.00,,,0.00,meteohub,2013-03-25 22:21:00,
2013-03-25 15:26:00,52.2,45.5,30.00,West,273,3.0,17.0,78,0.00,,,0.00,meteohub,2013-03-25 22:26:00,
2013-03-25 15:32:00,52.5,45.1,29.99,SW,220,7.0,16.0,76,0.00,,,0.00,meteohub,2013-03-25 22:32:00,
2013-03-25 15:37:00,53.2,45.5,29.99,SSW,208,9.0,16.0,75,0.00,,,0.00,meteohub,2013-03-25 22:37:00,
2013-03-25 15:42:00,53.4,45.3,29.99,West,275,9.0,16.0,74,0.00,,,0.00,meteohub,2013-03-25 22:42:00,
2013-03-25 15:47:00,52.7,44.6,29.99,West,269,8.0,16.0,74,0.00,,,0.00,meteohub,2013-03-25 22:47:00,
2013-03-25 15:52:00,52.2,44.8,29.99,West,270,10.0,17.0,76,0.00,,,0.00,meteohub,2013-03-25 22:52:00,
2013-03-25 15:58:00,52.0,45.0,29.99,West,264,11.0,17.0,77,0.00,,,0.00,meteohub,2013-03-25 22:58:00,
2013-03-25 16:03:00,52.2,45.5,29.99,West,274,5.0,17.0,78,0.00,,,0.00,meteohub,2013-03-25 23:03:00,
2013-03-25 16:08:00,52.2,45.1,29.98,NW,311,1.0,16.0,77,0.00,,,0.00,meteohub,2013-03-25 23:08:00,
2013-03-25 16:13:00,52.3,45.7,29.98,WNW,293,12.0,16.0,78,0.00,,,0.00,meteohub,2013-03-25 23:13:00,
2013-03-25 16:18:00,52.3,45.3,29.98,WNW,293,4.0,16.0,77,0.00,,,0.00,meteohub,2013-03-25 23:18:00,
2013-03-25 16:24:00,52.0,45.3,29.98,WNW,291,1.0,16.0,78,0.00,,,0.00,meteohub,2013-03-25 23:24:00,
2013-03-25 16:29:00,52.0,45.7,29.98,WSW,251,2.0,16.0,79,0.00,,,0.00,meteohub,2013-03-25 23:29:00,
2013-03-25 16:34:00,52.3,45.7,29.98,WSW,256,10.0,13.0,78,0.00,,,0.00,meteohub,2013-03-25 23:34:00,
2013-03-25 16:39:00,52.3,46.0,29.98,WSW,253,5.0,13.0,79,0.00,,,0.00,meteohub,2013-03-25 23:39:00,
2013-03-25 16:44:00,52.2,45.9,29.98,West,273,2.0,13.0,79,0.00,,,0.00,meteohub,2013-03-25 23:44:00,
2013-03-25 16:49:00,51.4,44.8,29.98,WSW,249,10.0,13.0,78,0.00,,,0.00,meteohub,2013-03-25 23:49:00,
2013-03-25 16:54:00,51.3,45.7,29.98,West,269,9.0,15.0,81,0.00,,,0.00,meteohub,2013-03-25 23:54:00,
2013-03-25 17:00:00,51.3,45.3,29.98,WSW,251,7.0,15.0,80,0.00,,,0.00,meteohub,2013-03-26 00:00:00,
2013-03-25 17:05:00,51.3,45.7,29.98,WSW,251,9.0,15.0,81,0.00,,,0.00,meteohub,2013-03-26 00:05:00,
2013-03-25 17:10:00,50.9,45.3,29.97,WNW,293,2.0,13.0,81,0.00,,,0.00,meteohub,2013-03-26 00:10:00,
2013-03-25 17:15:00,51.3,46.0,29.97,West,260,2.0,15.0,82,0.00,,,0.00,meteohub,2013-03-26 00:15:00,
2013-03-25 17:20:00,51.3,45.7,29.97,WSW,250,11.0,15.0,81,0.00,,,0.00,meteohub,2013-03-26 00:20:00,
2013-03-25 17:25:00,51.1,45.5,29.97,SW,227,5.0,18.0,81,0.00,,,0.00,meteohub,2013-03-26 00:25:00,
2013-03-25 17:31:00,51.3,45.7,29.98,SW,233,8.0,18.0,81,0.00,,,0.00,meteohub,2013-03-26 00:31:00,
2013-03-25 17:36:00,51.4,45.9,29.98,WNW,287,5.0,18.0,81,0.00,,,0.00,meteohub,2013-03-26 00:36:00,
2013-03-25 17:41:00,51.4,45.5,29.97,WNW,291,4.0,15.0,80,0.00,,,0.00,meteohub,2013-03-26 00:41:00,
2013-03-25 17:47:00,51.1,45.5,29.97,WSW,247,11.0,14.0,81,0.00,,,0.00,meteohub,2013-03-26 00:47:00,
2013-03-25 17:52:00,50.9,45.3,29.97,WSW,258,3.0,16.0,81,0.00,,,0.00,meteohub,2013-03-26 00:52:00,
2013-03-25 17:57:00,50.7,45.1,29.97,West,279,7.0,16.0,81,0.00,,,0.00,meteohub,2013-03-26 00:57:00,
2013-03-25 18:02:00,50.5,45.3,29.97,NW,320,4.0,16.0,82,0.00,,,0.00,meteohub,2013-03-26 01:02:00,
2013-03-25 18:07:00,50.5,45.3,29.97,WSW,244,5.0,15.0,82,0.00,,,0.00,meteohub,2013-03-26 01:07:00,
2013-03-25 18:12:00,50.5,45.5,29.97,WNW,285,7.0,15.0,83,0.00,,,0.00,meteohub,2013-03-26 01:12:00,
2013-03-25 18:17:00,50.5,45.3,29.98,West,266,2.0,13.0,82,0.00,,,0.00,meteohub,2013-03-26 01:17:00,
2013-03-25 18:22:00,50.4,45.3,29.97,WNW,285,4.0,17.0,83,0.00,,,0.00,meteohub,2013-03-26 01:22:00,
2013-03-25 18:27:00,50.2,45.1,29.98,WNW,290,11.0,20.0,83,0.00,,,0.00,meteohub,2013-03-26 01:27:00,
2013-03-25 18:32:00,50.0,45.3,29.97,WSW,240,10.0,20.0,84,0.00,,,0.00,meteohub,2013-03-26 01:32:00,
2013-03-25 18:37:00,50.0,45.3,29.98,West,281,7.0,20.0,84,0.00,,,0.00,meteohub,2013-03-26 01:37:00,
2013-03-25 18:42:00,50.2,45.5,29.98,WSW,237,7.0,16.0,84,0.00,,,0.00,meteohub,2013-03-26 01:42:00,
2013-03-25 18:48:00,50.2,45.5,29.98,NNW,334,7.0,16.0,84,0.00,,,0.00,meteohub,2013-03-26 01:48:00,
2013-03-25 18:53:00,50.0,45.7,29.97,West,270,5.0,14.0,85,0.00,,,0.00,meteohub,2013-03-26 01:53:00,
2013-03-25 18:58:00,49.8,45.5,29.98,West,278,13.0,15.0,85,0.00,,,0.00,meteohub,2013-03-26 01:58:00,
2013-03-25 19:03:00,49.8,45.5,29.97,WSW,242,4.0,16.0,85,0.00,,,0.00,meteohub,2013-03-26 02:03:00,
2013-03-25 19:09:00,49.8,45.5,29.98,West,267,11.0,16.0,85,0.00,,,0.00,meteohub,2013-03-26 02:09:00,
2013-03-25 19:14:00,49.6,45.7,29.98,WSW,257,6.0,16.0,86,0.00,,,0.00,meteohub,2013-03-26 02:14:00,
2013-03-25 19:19:00,49.8,45.9,29.98,WNW,288,3.0,15.0,86,0.00,,,0.00,meteohub,2013-03-26 02:19:00,
2013-03-25 19:24:00,49.6,45.7,29.98,WNW,300,0.0,15.0,86,0.00,,,0.00,meteohub,2013-03-26 02:24:00,
2013-03-25 19:29:00,49.6,45.7,29.98,WSW,243,5.0,14.0,86,0.00,,,0.00,meteohub,2013-03-26 02:29:00,
2013-03-25 19:35:00,49.6,45.7,29.98,West,277,6.0,14.0,86,0.00,,,0.00,meteohub,2013-03-26 02:35:00,
2013-03-25 19:40:00,49.6,45.7,29.98,WNW,284,5.0,15.0,86,0.00,,,0.00,meteohub,2013-03-26 02:40:00,
2013-03-25 19:45:00,49.6,45.9,29.99,WSW,237,3.0,15.0,87,0.00,,,0.00,meteohub,2013-03-26 02:45:00,
2013-03-25 19:51:00,49.6,45.9,29.99,West,268,5.0,15.0,87,0.00,,,0.00,meteohub,2013-03-26 02:51:00,
2013-03-25 19:56:00,49.6,45.9,29.98,WSW,247,11.0,15.0,87,0.00,,,0.00,meteohub,2013-03-26 02:56:00,
2013-03-25 20:01:00,49.6,45.9,29.98,SW,218,5.0,15.0,87,0.00,,,0.00,meteohub,2013-03-26 03:01:00,
2013-03-25 20:07:00,49.5,45.5,29.97,NNW,343,0.0,12.0,86,0.00,,,0.00,meteohub,2013-03-26 03:07:00,
2013-03-25 20:12:00,49.5,45.5,29.97,NW,312,6.0,11.0,86,0.00,,,0.00,meteohub,2013-03-26 03:12:00,
2013-03-25 20:17:00,49.5,45.5,29.96,WNW,296,0.0,11.0,86,0.00,,,0.00,meteohub,2013-03-26 03:17:00,
2013-03-25 20:23:00,49.5,45.5,29.96,WNW,289,1.0,9.0,86,0.00,,,0.00,meteohub,2013-03-26 03:23:00,
2013-03-25 20:28:00,49.5,45.5,29.94,NNW,341,2.0,9.0,86,0.00,,,0.00,meteohub,2013-03-26 03:28:00,
2013-03-25 20:33:00,49.5,45.5,29.93,North,0,0.0,8.0,86,0.00,,,0.00,meteohub,2013-03-26 03:33:00,
2013-03-25 20:38:00,49.5,45.5,29.95,SSE,160,1.0,7.0,86,0.00,,,0.00,meteohub,2013-03-26 03:38:00,
2013-03-25 20:43:00,49.5,45.5,29.96,WSW,240,2.0,8.0,86,0.00,,,0.00,meteohub,2013-03-26 03:43:00,
2013-03-25 20:48:00,49.6,45.7,29.98,WSW,240,0.0,8.0,86,0.00,,,0.00,meteohub,2013-03-26 03:48:00,
2013-03-25 20:54:00,49.6,45.3,29.98,West,268,9.0,9.0,85,0.00,,,0.00,meteohub,2013-03-26 03:54:00,
2013-03-25 20:59:00,49.6,45.7,29.98,WSW,239,7.0,11.0,86,0.00,,,0.00,meteohub,2013-03-26 03:59:00,
2013-03-25 21:00:00,49.6,45.7,29.98,SW,222,4.0,11.0,86,0.00,,,0.00,meteohub,2013-03-26 04:00:00,
2013-03-25 21:01:00,49.6,45.7,29.98,WSW,240,4.0,11.0,86,0.00,,,0.00,meteohub,2013-03-26 04:01:00,
2013-03-25 21:02:00,49.6,45.7,29.99,SW,227,1.0,11.0,86,0.00,,,0.00,meteohub,2013-03-26 04:02:00,
2013-03-25 21:07:00,49.6,45.3,29.99,WSW,251,1.0,11.0,85,0.00,,,0.00,meteohub,2013-03-26 04:07:00,
2013-03-25 21:12:00,49.6,45.7,29.99,WSW,255,6.0,10.0,86,0.00,,,0.00,meteohub,2013-03-26 04:12:00,
2013-03-25 21:17:00,49.6,45.9,29.99,WNW,283,1.0,12.0,87,0.00,,,0.00,meteohub,2013-03-26 04:17:00,
2013-03-25 21:22:00,49.6,45.9,29.99,WSW,244,3.0,12.0,87,0.00,,,0.00,meteohub,2013-03-26 04:22:00,
2013-03-25 21:27:00,49.6,45.9,29.99,SW,225,8.0,14.0,87,0.00,,,0.00,meteohub,2013-03-26 04:27:00,
2013-03-25 21:33:00,49.5,45.7,30.00,West,274,10.0,14.0,87,0.00,,,0.00,meteohub,2013-03-26 04:33:00,
2013-03-25 21:38:00,49.5,45.7,30.00,WSW,246,5.0,15.0,87,0.00,,,0.00,meteohub,2013-03-26 04:38:00,
2013-03-25 21:43:00,49.5,45.7,30.00,West,263,5.0,16.0,87,0.00,,,0.00,meteohub,2013-03-26 04:43:00,
2013-03-25 21:48:00,49.5,45.7,30.00,West,268,10.0,16.0,87,0.00,,,0.00,meteohub,2013-03-26 04:48:00,
2013-03-25 21:53:00,49.5,45.7,30.00,West,260,13.0,15.0,87,0.00,,,0.00,meteohub,2013-03-26 04:53:00,
2013-03-25 21:58:00,49.5,45.7,30.00,West,260,7.0,15.0,87,0.00,,,0.00,meteohub,2013-03-26 04:58:00,
2013-03-25 22:04:00,49.5,46.0,30.00,SW,233,11.0,15.0,88,0.00,,,0.00,meteohub,2013-03-26 05:04:00,
2013-03-25 22:09:00,49.5,46.0,30.00,SW,218,7.0,15.0,88,0.00,,,0.00,meteohub,2013-03-26 05:09:00,
2013-03-25 22:14:00,49.5,45.7,30.00,West,259,11.0,14.0,87,0.00,,,0.00,meteohub,2013-03-26 05:14:00,
2013-03-25 22:20:00,49.5,46.0,30.00,West,268,10.0,14.0,88,0.00,,,0.00,meteohub,2013-03-26 05:20:00,
2013-03-25 22:25:00,49.5,46.0,30.00,West,279,10.0,14.0,88,0.00,,,0.00,meteohub,2013-03-26 05:25:00,
2013-03-25 22:30:00,49.5,45.7,30.00,NW,305,3.0,14.0,87,0.00,,,0.00,meteohub,2013-03-26 05:30:00,
2013-03-25 22:35:00,49.6,45.9,30.00,WSW,243,7.0,16.0,87,0.00,,,0.00,meteohub,2013-03-26 05:35:00,
2013-03-25 22:40:00,49.5,45.7,30.00,SW,215,5.0,14.0,87,0.00,,,0.00,meteohub,2013-03-26 05:40:00,
2013-03-25 22:45:00,49.5,45.5,30.00,West,260,5.0,14.0,86,0.00,,,0.00,meteohub,2013-03-26 05:45:00,
2013-03-25 22:50:00,49.5,45.5,30.01,West,273,1.0,14.0,86,0.00,,,0.00,meteohub,2013-03-26 05:50:00,
2013-03-25 22:56:00,49.5,45.5,30.01,WSW,251,2.0,13.0,86,0.00,,,0.00,meteohub,2013-03-26 05:56:00,
2013-03-25 23:01:00,49.5,45.5,30.01,SW,232,8.0,14.0,86,0.00,,,0.00,meteohub,2013-03-26 06:01:00,
2013-03-25 23:07:00,49.3,45.3,30.01,West,267,3.0,14.0,86,0.00,,,0.00,meteohub,2013-03-26 06:07:00,
2013-03-25 23:12:00,49.3,45.3,30.01,WNW,300,0.0,14.0,86,0.00,,,0.00,meteohub,2013-03-26 06:12:00,
2013-03-25 23:17:00,49.3,45.3,30.01,WSW,252,2.0,14.0,86,0.00,,,0.00,meteohub,2013-03-26 06:17:00,
2013-03-25 23:22:00,49.3,45.3,30.01,WSW,245,1.0,14.0,86,0.00,,,0.00,meteohub,2013-03-26 06:22:00,
2013-03-25 23:27:00,49.1,45.1,30.01,West,262,6.0,14.0,86,0.00,,,0.00,meteohub,2013-03-26 06:27:00,
2013-03-25 23:32:00,49.1,45.1,30.01,WNW,303,4.0,14.0,86,0.00,,,0.00,meteohub,2013-03-26 06:32:00,
2013-03-25 23:37:00,48.9,45.0,30.01,WSW,253,10.0,15.0,86,0.00,,,0.00,meteohub,2013-03-26 06:37:00,
2013-03-25 23:42:00,48.9,45.0,30.01,SW,227,8.0,16.0,86,0.00,,,0.00,meteohub,2013-03-26 06:42:00,
2013-03-25 23:47:00,49.1,45.3,30.01,WNW,289,7.0,16.0,87,0.00,,,0.00,meteohub,2013-03-26 06:47:00,
2013-03-25 23:52:00,48.9,45.1,30.01,WSW,256,5.0,19.0,87,0.00,,,0.00,meteohub,2013-03-26 06:52:00,
2013-03-25 23:57:00,48.9,45.1,30.01,WSW,258,6.0,19.0,87,0.00,,,0.00,meteohub,2013-03-26 06:57:00,